TimeMST,TemperatureF,Dew PointF,Humidity,Sea Level PressureIn,VisibilityMPH,Wind Direction,Wind SpeedMPH,Gust SpeedMPH,PrecipitationIn,Events,Conditions,WindDirDegrees,DateUTC
12:53 AM,8.1,-7.1,50,30.40,10.0,Variable,4.6,-,N/A,,Clear,0,2013-12-12 07:53:00
1:53 AM,10.0,-6.0,48,30.40,10.0,NNE,6.9,-,N/A,,Clear,30,2013-12-12 08:53:00
2:53 AM,6.1,-6.0,58,30.43,9.0,ENE,8.1,-,N/A,,Clear,60,2013-12-12 09:53:00
3:53 AM,7.0,-6.0,55,30.45,4.0,North,6.9,-,N/A,,Haze,360,2013-12-12 10:53:00
4:53 AM,7.0,-6.0,55,30.49,10.0,North,10.4,-,N/A,,Clear,360,2013-12-12 11:53:00
5:53 AM,6.1,-6.0,58,30.53,10.0,Variable,5.8,-,N/A,,Clear,0,2013-12-12 12:53:00
6:53 AM,10.0,-5.1,51,30.51,10.0,North,6.9,-,N/A,,Clear,350,2013-12-12 13:53:00
7:53 AM,10.0,-4.0,53,30.56,10.0,NNE,11.5,-,N/A,,Clear,20,2013-12-12 14:53:00
8:53 AM,23.0,-2.9,32,30.43,10.0,Variable,5.8,-,N/A,,Clear,0,2013-12-12 15:53:00
9:53 AM,30.0,-4.0,23,30.38,10.0,North,8.1,-,N/A,,Clear,360,2013-12-12 16:53:00
10:53 AM,36.0,-4.0,18,30.34,10.0,North,6.9,-,N/A,,Clear,350,2013-12-12 17:53:00
11:53 AM,37.9,-2.0,18,30.21,10.0,North,8.1,-,N/A,,Clear,350,2013-12-12 18:53:00
12:53 PM,39.0,-0.9,19,30.21,10.0,North,9.2,-,N/A,,Clear,350,2013-12-12 19:53:00
1:53 PM,37.0,3.0,24,30.18,10.0,NW,12.7,20.7,N/A,,Clear,320,2013-12-12 20:53:00
2:53 PM,37.0,3.9,25,30.19,10.0,NW,11.5,-,N/A,,Clear,320,2013-12-12 21:53:00
3:53 PM,34.0,3.0,27,30.19,10.0,NNW,9.2,-,N/A,,Clear,340,2013-12-12 22:53:00
4:53 PM,27.0,-0.9,30,30.25,10.0,NNE,3.5,-,N/A,,Clear,20,2013-12-12 23:53:00
5:53 PM,23.0,3.0,42,30.25,10.0,NE,12.7,-,N/A,,Clear,40,2013-12-13 00:53:00
6:53 PM,21.0,1.0,42,30.22,10.0,NNE,13.8,-,N/A,,Clear,20,2013-12-13 01:53:00
7:53 PM,18.0,-2.9,40,30.23,10.0,NE,10.4,-,N/A,,Clear,40,2013-12-13 02:53:00
8:53 PM,16.0,-6.0,38,30.13,10.0,NE,8.1,-,N/A,,Clear,40,2013-12-13 03:53:00
9:53 PM,10.9,-5.1,49,30.10,6.0,North,5.8,-,N/A,,Haze,350,2013-12-13 04:53:00
10:53 PM,14.0,-2.9,47,30.03,8.0,NE,9.2,-,N/A,,Clear,50,2013-12-13 05:53:00
11:53 PM,10.0,-0.9,61,30.02,7.0,NE,10.4,-,N/A,,Clear,50,2013-12-13 06:53:00